| time (UTC) | temp C | wind direction | speed KPH | gust KPH | rain 1hr cm | rain 24hr cm | rain mn cm | humidity % | barometer mb |
| 20260508003928 | 10 | 285 | 0.0 | 0.0 | 0.03 | 3.02 | 3.00 | 97 | 1002.3 |
| 20260508003422 | 11 | 214 | 0.0 | 0.0 | 0.03 | 3.02 | 3.00 | 97 | 1002.3 |
| 20260508002916 | 11 | 252 | 0.0 | 0.0 | 0.03 | 3.02 | 3.00 | 97 | 1002.2 |
| 20260508002410 | 11 | 219 | 0.0 | 0.0 | 0.03 | 3.02 | 3.00 | 97 | 1002.1 |
| 20260508001904 | 11 | 250 | 0.0 | 0.0 | 0.03 | 3.02 | 3.00 | 96 | 1002.2 |
| 20260508001358 | 11 | 280 | 0.0 | 0.0 | 0.03 | 3.02 | 3.00 | 96 | 1002.1 |
| 20260508000852 | 11 | 233 | 0.0 | 0.0 | 0.00 | 3.00 | 2.97 | 95 | 1002.2 |
| 20260508000346 | 11 | 298 | 0.0 | 0.0 | 0.00 | 3.00 | 2.97 | 94 | 1002.0 |
| 20260507235841 | 11 | 80 | 0.0 | 0.0 | 0.00 | 3.00 | 2.97 | 93 | 1001.9 |
| 20260507235334 | 11 | 264 | 0.0 | 0.0 | 0.00 | 3.00 | 2.97 | 91 | 1002.0 |
| 20260507234828 | 12 | 299 | 0.0 | 0.0 | 0.00 | 3.00 | 2.97 | 90 | 1002.0 |
| 20260507234322 | 12 | 257 | 0.0 | 0.0 | 0.00 | 3.00 | 2.97 | 90 | 1002.0 |
| 20260507233310 | 12 | 76 | 0.0 | 0.0 | 0.00 | 3.00 | 2.97 | 89 | 1002.3 |
| 20260507232258 | 12 | 244 | 0.0 | 0.0 | 0.00 | 3.00 | 2.97 | 89 | 1002.1 |
| 20260507231253 | 12 | 262 | 0.0 | 0.0 | 0.00 | 3.00 | 2.97 | 89 | 1002.2 |
| 20260507230753 | 12 | 319 | 0.0 | 0.0 | 0.00 | 3.00 | 2.97 | 89 | 1002.2 |
| 20260507225751 | 12 | 280 | 0.0 | 0.0 | 0.00 | 3.00 | 2.97 | 89 | 1002.6 |
| 20260507225251 | 12 | 281 | 0.0 | 0.0 | 0.00 | 3.00 | 2.97 | 89 | 1002.6 |
| 20260507224750 | 12 | 288 | 0.0 | 0.0 | 0.00 | 3.00 | 2.97 | 90 | 1002.3 |
| 20260507224248 | 12 | 227 | 0.0 | 0.0 | 0.00 | 3.00 | 2.97 | 90 | 1002.5 |
| 20260507223749 | 12 | 288 | 0.0 | 0.0 | 0.00 | 3.00 | 2.97 | 90 | 1002.5 |
| 20260507223248 | 12 | 283 | 0.0 | 0.0 | 0.00 | 3.00 | 2.97 | 90 | 1002.5 |
| 20260507222747 | 12 | 239 | 0.0 | 0.0 | 0.00 | 3.00 | 2.97 | 90 | 1002.5 |
| 20260507222246 | 12 | 265 | 0.0 | 0.0 | 0.00 | 3.00 | 2.97 | 90 | 1002.5 |
| 20260507221746 | 12 | 281 | 0.0 | 0.0 | 0.00 | 3.00 | 2.97 | 90 | 1002.3 |
| 20260507221245 | 12 | 46 | 0.0 | 0.0 | 0.00 | 3.00 | 2.97 | 90 | 1002.1 |
| 20260507220244 | 12 | 226 | 0.0 | 0.0 | 0.00 | 3.00 | 2.97 | 90 | 1001.9 |
| 20260507215744 | 12 | 288 | 0.0 | 0.0 | 0.00 | 3.00 | 2.97 | 90 | 1001.9 |
| 20260507214743 | 12 | 344 | 0.0 | 0.0 | 0.00 | 3.00 | 2.97 | 90 | 1001.8 |
| 20260507214243 | 12 | 288 | 0.0 | 0.0 | 0.00 | 3.00 | 2.97 | 90 | 1001.7 |
| 20260507213742 | 12 | 303 | 0.0 | 0.0 | 0.00 | 3.00 | 2.97 | 89 | 1001.7 |
| 20260507213240 | 13 | 262 | 0.0 | 0.0 | 0.00 | 3.00 | 2.97 | 89 | 1002.0 |
| 20260507212740 | 13 | 126 | 0.0 | 0.0 | 0.00 | 3.00 | 2.97 | 89 | 1002.0 |
| 20260507212240 | 13 | 285 | 0.0 | 0.0 | 0.00 | 3.00 | 2.97 | 89 | 1002.0 |
| 20260507211738 | 13 | 356 | 0.0 | 0.0 | 0.00 | 3.00 | 2.97 | 89 | 1002.0 |
| 20260507211236 | 13 | 291 | 0.0 | 0.0 | 0.00 | 3.00 | 2.97 | 89 | 1002.2 |
| 20260507210734 | 13 | 242 | 0.0 | 0.0 | 0.00 | 3.00 | 2.97 | 88 | 1001.8 |
| 20260507210234 | 13 | 255 | 0.0 | 0.0 | 0.00 | 3.00 | 2.97 | 87 | 1001.7 |
| 20260507205734 | 13 | 276 | 0.0 | 0.0 | 0.00 | 3.00 | 2.97 | 87 | 1001.6 |
| 20260507205234 | 13 | 67 | 0.0 | 0.0 | 0.00 | 3.00 | 2.97 | 87 | 1001.5 |
| 20260507204734 | 13 | 271 | 0.0 | 0.0 | 0.00 | 3.00 | 2.97 | 86 | 1001.6 |
| 20260507204230 | 13 | 224 | 0.0 | 0.0 | 0.00 | 3.00 | 2.97 | 86 | 1001.5 |
| 20260507203730 | 13 | 216 | 0.0 | 0.0 | 0.00 | 3.00 | 2.97 | 86 | 1001.4 |
| 20260507203230 | 13 | 126 | 0.0 | 0.0 | 0.00 | 3.00 | 2.97 | 86 | 1001.4 |
| 20260507202730 | 13 | 255 | 0.0 | 0.0 | 0.00 | 3.00 | 2.97 | 85 | 1001.3 |
| 20260507200728 | 13 | 262 | 0.0 | 0.0 | 0.00 | 3.00 | 2.97 | 84 | 1001.3 |
| 20260507200228 | 13 | 338 | 0.0 | 0.0 | 0.00 | 3.00 | 2.97 | 85 | 1001.2 |
| 20260507195727 | 13 | 253 | 0.0 | 0.0 | 0.00 | 3.00 | 2.97 | 84 | 1000.7 |
| 20260507195221 | 13 | 240 | 0.0 | 0.0 | 0.00 | 3.00 | 2.97 | 84 | 1000.3 |
| 20260507194713 | 13 | 326 | 0.0 | 0.0 | 0.00 | 3.00 | 2.97 | 83 | 1000.1 |
| 20260507194204 | 13 | 297 | 0.0 | 0.0 | 0.00 | 3.00 | 2.97 | 82 | 999.9 |
| 20260507193658 | 14 | 267 | 0.0 | 0.0 | 0.00 | 3.00 | 2.97 | 81 | 999.7 |
| 20260507193151 | 14 | 307 | 0.0 | 0.0 | 0.00 | 3.00 | 2.97 | 81 | 1000.0 |
| 20260507192646 | 14 | 274 | 0.0 | 0.0 | 0.00 | 3.00 | 2.97 | 82 | 1000.1 |
| 20260507192141 | 15 | 278 | 0.0 | 0.0 | 0.00 | 3.00 | 2.97 | 81 | 1000.2 |
| 20260507191634 | 15 | 219 | 0.0 | 0.0 | 0.00 | 3.00 | 2.97 | 81 | 1000.3 |
| 20260507191128 | 15 | 92 | 0.0 | 0.0 | 0.00 | 3.00 | 2.97 | 80 | 1000.9 |
| 20260507190117 | 15 | 179 | 0.0 | 0.0 | 0.00 | 3.00 | 2.97 | 81 | 1001.3 |
| 20260507185610 | 15 | 264 | 0.0 | 0.0 | 0.00 | 3.00 | 2.97 | 80 | 1001.8 |
| 20260507185104 | 15 | 276 | 0.0 | 0.0 | 0.00 | 3.00 | 2.97 | 81 | 1002.0 |
| 20260507184558 | 15 | 88 | 0.0 | 0.0 | 0.00 | 3.00 | 2.97 | 81 | 1002.1 |
| 20260507184052 | 15 | 243 | 0.0 | 0.0 | 0.00 | 3.00 | 2.97 | 81 | 1002.0 |
| 20260507183546 | 15 | 257 | 0.0 | 0.0 | 0.00 | 3.00 | 2.97 | 81 | 1002.2 |
| 20260507182534 | 15 | 257 | 0.0 | 0.0 | 0.00 | 3.00 | 2.97 | 82 | 1002.5 |
| 20260507182028 | 15 | 316 | 0.0 | 0.0 | 0.00 | 3.00 | 2.97 | 81 | 1002.6 |
| 20260507181016 | 15 | 321 | 0.0 | 0.0 | 0.00 | 3.00 | 2.97 | 81 | 1002.8 |
| 20260507180509 | 15 | 75 | 0.0 | 0.0 | 0.00 | 3.00 | 2.97 | 81 | 1002.8 |
| 20260507180004 | 15 | 98 | 0.0 | 0.0 | 0.00 | 3.00 | 2.97 | 82 | 1002.8 |
| 20260507175458 | 15 | 76 | 0.0 | 0.0 | 0.00 | 3.00 | 2.97 | 82 | 1002.8 |
| 20260507174951 | 15 | 312 | 0.0 | 0.0 | 0.00 | 3.00 | 2.97 | 83 | 1003.0 |
| 20260507174446 | 15 | 334 | 0.0 | 0.0 | 0.00 | 3.00 | 2.97 | 83 | 1002.9 |
| 20260507173940 | 14 | 270 | 0.0 | 0.0 | 0.00 | 3.00 | 2.97 | 83 | 1002.9 |
| 20260507173434 | 14 | 282 | 0.0 | 0.0 | 0.00 | 3.00 | 2.97 | 84 | 1002.6 |
| 20260507172927 | 14 | 221 | 0.0 | 0.0 | 0.00 | 3.00 | 2.97 | 85 | 1002.1 |
| 20260507172422 | 14 | 273 | 0.0 | 0.0 | 0.00 | 3.00 | 2.97 | 85 | 1001.8 |
| 20260507171410 | 15 | 273 | 0.0 | 0.0 | 0.00 | 3.00 | 2.97 | 84 | 1001.8 |
| 20260507170910 | 14 | 256 | 0.0 | 0.0 | 0.00 | 3.00 | 2.97 | 83 | 1001.8 |
| 20260507170410 | 14 | 248 | 0.0 | 0.0 | 0.00 | 3.00 | 2.97 | 84 | 1001.8 |
| 20260507165910 | 14 | 251 | 0.0 | 0.0 | 0.00 | 3.00 | 2.97 | 84 | 1001.8 |
| 20260507165410 | 14 | 231 | 0.0 | 0.0 | 0.00 | 3.00 | 2.97 | 84 | 1002.0 |
| 20260507164910 | 14 | 224 | 0.0 | 0.0 | 0.00 | 3.00 | 2.97 | 85 | 1002.0 |
| 20260507164410 | 14 | 246 | 0.0 | 0.0 | 0.00 | 3.00 | 2.97 | 84 | 1002.4 |
| 20260507163410 | 14 | 272 | 0.0 | 0.0 | 0.00 | 3.00 | 2.97 | 86 | 1003.0 |
| 20260507162914 | 14 | 302 | 0.0 | 0.0 | 0.00 | 3.00 | 2.97 | 85 | 1002.8 |
| 20260507162413 | 14 | 231 | 0.0 | 0.0 | 0.00 | 3.00 | 2.97 | 85 | 1003.2 |
| 20260507161913 | 14 | 300 | 0.0 | 0.0 | 0.00 | 3.00 | 2.97 | 85 | 1003.0 |
| 20260507161413 | 14 | 274 | 0.0 | 0.0 | 0.00 | 3.00 | 2.97 | 87 | 1002.5 |
| 20260507155911 | 14 | 266 | 0.0 | 0.0 | 0.00 | 3.00 | 2.97 | 87 | 1002.0 |
| 20260507155411 | 14 | 285 | 0.0 | 0.0 | 0.00 | 3.00 | 2.97 | 87 | 1002.3 |
| 20260507154911 | 14 | 305 | 0.0 | 0.0 | 0.00 | 3.00 | 2.97 | 88 | 1002.4 |
| 20260507154411 | 14 | 237 | 0.0 | 0.0 | 0.00 | 3.00 | 2.97 | 88 | 1002.3 |
| 20260507153911 | 14 | 231 | 0.0 | 0.0 | 0.00 | 3.00 | 2.97 | 87 | 1002.1 |
| 20260507152911 | 14 | 278 | 0.0 | 0.0 | 0.00 | 3.00 | 2.97 | 89 | 1002.1 |
| 20260507152412 | 14 | 264 | 0.0 | 0.0 | 0.00 | 3.00 | 2.97 | 88 | 1002.4 |
| 20260507151911 | 14 | 259 | 0.0 | 0.0 | 0.00 | 3.00 | 2.97 | 88 | 1002.3 |
| 20260507151411 | 14 | 274 | 0.0 | 0.0 | 0.00 | 3.00 | 2.97 | 90 | 1002.4 |
| 20260507150912 | 14 | 245 | 0.0 | 0.0 | 0.00 | 3.00 | 2.97 | 91 | 1002.4 |
| 20260507150411 | 14 | 270 | 0.0 | 0.0 | 0.00 | 3.00 | 2.97 | 93 | 1002.5 |
| 20260507145911 | 14 | 267 | 0.0 | 0.0 | 0.00 | 3.00 | 2.97 | 96 | 1002.5 |
| 20260507145411 | 13 | 243 | 0.0 | 0.0 | 0.00 | 3.00 | 2.97 | 100 | 1002.3 |
| 20260507144407 | -17 | 0.0 | 0.0 | 0.00 | 3.00 | 2.97 | 1002.5 | ||
| 20260507143906 | -17 | 0.0 | 0.0 | 0.00 | 3.00 | 2.97 | 1002.5 | ||
| 20260507142819 | -17 | 0.0 | 0.0 | 0.00 | 3.00 | 2.97 | 1002.3 | ||
| 20260507142318 | -17 | 0.0 | 0.0 | 0.00 | 3.00 | 2.97 | 1002.3 | ||
| 20260507141810 | -17 | 0.0 | 0.0 | 0.00 | 3.00 | 2.97 | 1002.1 | ||
| 20260507141310 | -17 | 0.0 | 0.0 | 0.00 | 3.00 | 2.97 | 1002.0 | ||
| 20260507140809 | -17 | 0.0 | 0.0 | 0.00 | 3.00 | 2.97 | 1001.9 | ||
| 20260507140215 | -17 | 0.0 | 0.0 | 0.00 | 3.00 | 2.97 | 1001.0 | ||
| 20260507135715 | -17 | 0.0 | 0.0 | 0.00 | 3.00 | 2.97 | 1000.8 | ||
| 20260507135212 | -17 | 0.0 | 0.0 | 0.00 | 3.00 | 2.97 | 1001.2 | ||
| 20260507134710 | -17 | 0.0 | 0.0 | 0.00 | 3.00 | 2.97 | 1001.8 | ||
| 20260507134208 | -17 | 0.0 | 0.0 | 0.00 | 3.00 | 2.97 | 1001.7 | ||
| 20260507133620 | -17 | 0.0 | 0.0 | 0.00 | 3.00 | 2.97 | 1002.3 | ||
| 20260507133113 | -17 | 0.0 | 0.0 | 0.00 | 3.00 | 2.97 | 1002.6 | ||
| 20260507132610 | -17 | 0.0 | 0.0 | 0.00 | 3.00 | 2.97 | 1003.0 | ||
| 20260507132107 | -17 | 0.0 | 0.0 | 0.00 | 3.00 | 2.97 | 1003.6 | ||
| 20260507131517 | -17 | 0.0 | 0.0 | 0.00 | 3.00 | 2.97 | 1002.8 | ||
| 20260507131013 | -17 | 0.0 | 0.0 | 0.00 | 3.00 | 2.97 | 1002.8 | ||
| 20260507125508 | -17 | 0.0 | 0.0 | 0.00 | 3.00 | 2.97 | 1003.0 | ||
| 20260507124912 | -17 | 0.0 | 0.0 | 0.00 | 3.00 | 2.97 | 1002.0 | ||
| 20260507124409 | -17 | 0.0 | 0.0 | 0.00 | 3.00 | 2.97 | 1002.0 | ||
| 20260507123406 | -17 | 0.0 | 0.0 | 0.00 | 3.00 | 2.97 | 1001.4 | ||
| 20260507122906 | -17 | 0.0 | 0.0 | 0.00 | 3.00 | 2.97 | 1001.5 | ||
| 20260507122318 | -17 | 0.0 | 0.0 | 0.00 | 3.00 | 2.97 | 1001.4 | ||
| 20260507121816 | -17 | 0.0 | 0.0 | 0.00 | 3.00 | 2.97 | 1001.7 | ||
| 20260507121310 | -17 | 0.0 | 0.0 | 0.00 | 3.00 | 2.97 | 1002.0 | ||
| 20260507120808 | -17 | 0.0 | 0.0 | 0.00 | 3.00 | 2.97 | 1001.8 | ||
| 20260507120211 | -17 | 0.0 | 0.0 | 0.00 | 3.00 | 2.97 | 1001.7 | ||
| 20260507115707 | -17 | 0.0 | 0.0 | 0.00 | 3.00 | 2.97 | 1001.4 | ||
| 20260507115113 | -17 | 0.0 | 0.0 | 0.00 | 3.00 | 2.97 | 1001.1 | ||
| 20260507114608 | -17 | 0.0 | 0.0 | 0.00 | 3.00 | 2.97 | 1000.5 | ||
| 20260507114107 | -17 | 0.0 | 0.0 | 0.00 | 3.00 | 2.97 | 1000.4 | ||
| 20260507113029 | -17 | 0.0 | 0.0 | 0.00 | 3.00 | 2.97 | 1002.0 | ||
| 20260507112510 | -17 | 0.0 | 0.0 | 0.00 | 3.00 | 2.97 | 1001.9 | ||
| 20260507112001 | -17 | 0.0 | 0.0 | 0.00 | 3.00 | 2.97 | 1001.6 | ||
| 20260507110906 | -17 | 0.0 | 0.0 | 0.00 | 3.00 | 2.97 | 1000.5 | ||
| 20260507110317 | -17 | 0.0 | 0.0 | 0.00 | 3.00 | 2.97 | 1000.3 | ||
| 20260507105807 | -17 | 0.0 | 0.0 | 0.00 | 3.00 | 2.97 | 1000.1 | ||
| 20260507105209 | -17 | 0.0 | 0.0 | 0.00 | 3.00 | 2.97 | 1000.7 | ||
| 20260507104708 | -17 | 0.0 | 0.0 | 0.00 | 3.00 | 2.97 | 1000.5 | ||
| 20260507104205 | -17 | 0.0 | 0.0 | 0.00 | 3.00 | 2.97 | 1000.7 | ||
| 20260507103613 | -17 | 0.0 | 0.0 | 0.00 | 3.00 | 2.97 | 1000.4 | ||
| 20260507103108 | -17 | 0.0 | 0.0 | 0.00 | 3.00 | 2.97 | 1000.3 | ||
| 20260507102608 | -17 | 0.0 | 0.0 | 0.00 | 3.00 | 2.97 | 1000.8 | ||
| 20260507102105 | -17 | 0.0 | 0.0 | 0.00 | 3.00 | 2.97 | 1000.8 | ||
| 20260507101512 | -17 | 0.0 | 0.0 | 0.00 | 3.00 | 2.97 | 1000.8 | ||
| 20260507101009 | -17 | 0.0 | 0.0 | 0.00 | 3.00 | 2.97 | 1000.9 | ||
| 20260507100513 | -17 | 0.0 | 0.0 | 0.00 | 3.00 | 2.97 | 1000.5 | ||
| 20260507100011 | -17 | 0.0 | 0.0 | 0.00 | 3.00 | 2.97 | 999.5 | ||
| 20260507095511 | -17 | 0.0 | 0.0 | 0.00 | 3.00 | 2.97 | 999.8 | ||
| 20260507094917 | -17 | 0.0 | 0.0 | 0.00 | 3.00 | 2.97 | 999.8 | ||
| 20260507094407 | -17 | 0.0 | 0.0 | 0.00 | 3.00 | 2.97 | 999.3 | ||
| 20260507093906 | -17 | 0.0 | 0.0 | 0.00 | 3.00 | 2.97 | 1000.3 | ||
| 20260507093401 | -17 | 0.0 | 0.0 | 0.00 | 3.00 | 2.97 | 1000.5 | ||
| 20260507092817 | -17 | 0.0 | 0.0 | 0.00 | 3.00 | 2.97 | 1000.2 | ||
| 20260507092317 | -17 | 0.0 | 0.0 | 0.00 | 3.00 | 2.97 | 1000.2 | ||
| 20260507091807 | -17 | 0.0 | 0.0 | 0.00 | 3.00 | 2.97 | 1000.6 | ||
| 20260507090705 | -17 | 0.0 | 0.0 | 0.00 | 3.00 | 2.97 | 1000.7 | ||
| 20260507085103 | -17 | 0.0 | 0.0 | 0.00 | 3.00 | 2.97 | 999.9 | ||
| 20260507084605 | -17 | 0.0 | 0.0 | 0.00 | 3.00 | 2.97 | 999.6 | ||
| 20260507084009 | -17 | 0.0 | 0.0 | 0.00 | 3.00 | 2.97 | 1000.3 | ||
| 20260507083418 | -17 | 0.0 | 0.0 | 0.00 | 3.00 | 2.97 | 1000.3 | ||
| 20260507082905 | -17 | 0.0 | 0.0 | 0.00 | 3.00 | 2.97 | 1000.2 | ||
| 20260507082310 | -17 | 0.0 | 0.0 | 0.00 | 3.00 | 2.97 | 1000.1 | ||
| 20260507081807 | -17 | 0.0 | 0.0 | 0.00 | 3.00 | 2.97 | 1000.5 | ||
| 20260507081213 | -17 | 0.0 | 0.0 | 0.00 | 3.00 | 2.97 | 1001.5 | ||
| 20260507080712 | -17 | 0.0 | 0.0 | 0.00 | 3.00 | 2.97 | 1001.5 | ||
| 20260507080201 | -17 | 0.0 | 0.0 | 0.00 | 3.00 | 2.97 | 1001.2 | ||
| 20260507075607 | -17 | 0.0 | 0.0 | 0.00 | 3.00 | 2.97 | 1001.1 | ||
| 20260507075017 | -17 | 0.0 | 0.0 | 0.00 | 3.00 | 2.97 | 1001.1 | ||
| 20260507074506 | -17 | 0.0 | 0.0 | 0.00 | 3.00 | 2.97 | 1001.1 | ||
| 20260507074005 | -17 | 0.0 | 0.0 | 0.00 | 3.00 | 2.97 | 1000.6 | ||
| 20260507073406 | -17 | 0.0 | 0.0 | 0.03 | 3.00 | 2.97 | 1000.4 | ||
| 20260507072903 | -17 | 127 | 0.0 | 0.0 | 0.03 | 3.00 | 2.97 | 1000.4 | |
| 20260507072408 | 16 | 127 | 0.0 | 0.0 | 0.03 | 3.00 | 2.97 | 100 | 1000.0 |
| 20260507071906 | 16 | 127 | 0.0 | 0.0 | 0.05 | 3.00 | 2.97 | 100 | 1000.0 |
| 20260507071337 | 16 | 133 | 0.0 | 0.0 | 0.05 | 3.00 | 2.97 | 100 | 1000.3 |
| 20260507070333 | 16 | 124 | 0.0 | 0.0 | 0.10 | 3.00 | 2.97 | 100 | 1000.3 |
| 20260507065832 | 16 | 150 | 0.0 | 0.0 | 0.13 | 3.00 | 2.97 | 100 | 1000.1 |
| 20260507065332 | 17 | 103 | 0.0 | 0.0 | 0.15 | 3.00 | 2.97 | 100 | 999.2 |
| 20260507064832 | 17 | 148 | 0.0 | 0.0 | 0.18 | 3.00 | 2.97 | 100 | 999.1 |
| 20260507064329 | 17 | 117 | 0.0 | 0.0 | 0.23 | 3.00 | 2.97 | 100 | 999.6 |
| 20260507063328 | 16 | 76 | 0.0 | 0.0 | 0.23 | 2.97 | 2.97 | 100 | 1000.4 |
| 20260507062821 | 16 | 124 | 0.0 | 0.0 | 0.23 | 2.97 | 2.97 | 100 | 998.0 |
| 20260507062315 | 17 | 166 | 0.0 | 0.0 | 0.25 | 2.97 | 2.97 | 100 | 999.2 |
| 20260507061303 | 17 | 129 | 0.0 | 0.0 | 0.28 | 2.95 | 2.95 | 100 | 1000.5 |
| 20260507060758 | 17 | 120 | 0.0 | 0.0 | 0.28 | 2.92 | 2.92 | 100 | 1000.1 |
| 20260507060251 | 17 | 142 | 0.0 | 0.0 | 0.25 | 2.90 | 2.87 | 100 | 1000.8 |
| 20260507055744 | 17 | 317 | 0.0 | 0.0 | 0.23 | 2.87 | 2.87 | 100 | 1001.8 |
| 20260507055239 | 17 | 317 | 0.0 | 0.0 | 0.18 | 2.82 | 2.82 | 100 | 1002.5 |
| 20260507054733 | 17 | 317 | 0.0 | 0.0 | 0.18 | 2.82 | 2.79 | 100 | 1002.7 |
| 20260507054227 | 17 | 316 | 0.0 | 0.0 | 0.15 | 2.77 | 2.77 | 100 | 1002.8 |
| 20260507053728 | 17 | 316 | 0.0 | 0.0 | 0.13 | 2.77 | 2.74 | 100 | 1003.2 |
| 20260507053225 | 17 | 316 | 0.0 | 0.0 | 0.13 | 2.74 | 2.72 | 100 | 1002.7 |
| 20260507051225 | 17 | 211 | 0.0 | 0.0 | 0.10 | 2.67 | 2.64 | 100 | 1000.7 |
| 20260507050726 | 18 | 146 | 0.0 | 0.0 | 0.10 | 2.64 | 2.62 | 100 | 1001.5 |
| 20260507050225 | 18 | 201 | 0.0 | 0.0 | 0.15 | 2.64 | 2.62 | 100 | 1002.1 |
| 20260507045725 | 18 | 252 | 0.0 | 0.0 | 0.23 | 2.64 | 2.62 | 100 | 1002.0 |
| 20260507045225 | 18 | 252 | 0.0 | 0.0 | 0.41 | 2.64 | 2.62 | 100 | 1001.8 |
| 20260507044721 | 18 | 236 | 0.0 | 0.0 | 0.56 | 2.64 | 2.62 | 100 | 1001.5 |
| 20260507044221 | 18 | 137 | 0.0 | 0.0 | 0.79 | 2.64 | 2.62 | 100 | 1001.5 |
| 20260507043722 | 18 | 137 | 0.0 | 0.0 | 1.09 | 2.64 | 2.62 | 100 | 1001.6 |
| 20260507043221 | 18 | 137 | 0.0 | 0.0 | 1.27 | 2.62 | 2.59 | 100 | 1002.0 |
| 20260507042719 | 18 | 254 | 0.0 | 0.0 | 1.57 | 2.59 | 2.59 | 100 | 1001.3 |
| 20260507042219 | 18 | 254 | 0.0 | 0.0 | 1.96 | 2.59 | 2.57 | 100 | 1001.5 |
| 20260507041219 | 18 | 246 | 0.0 | 0.0 | 2.54 | 2.57 | 2.54 | 100 | 1000.8 |
| 20260507040717 | 18 | 179 | 0.0 | 0.0 | 2.51 | 2.54 | 2.51 | 100 | 1000.9 |
| 20260507040215 | 18 | 170 | 0.0 | 0.0 | 2.49 | 2.49 | 2.49 | 100 | 1001.1 |
| 20260507035713 | 19 | 169 | 0.0 | 0.0 | 2.36 | 2.39 | 2.39 | 100 | 1001.7 |
| 20260507035213 | 19 | 263 | 0.0 | 0.0 | 2.24 | 2.24 | 2.21 | 100 | 1002.0 |
| 20260507034709 | 19 | 160 | 0.0 | 0.0 | 2.08 | 2.08 | 2.06 | 100 | 1000.5 |
| 20260507034209 | 19 | 253 | 0.0 | 0.0 | 1.83 | 1.83 | 1.83 | 100 | 1000.6 |
| 20260507033708 | 19 | 169 | 0.0 | 0.0 | 1.55 | 1.55 | 1.55 | 100 | 1000.4 |
| 20260507033209 | 18 | 127 | 0.0 | 0.0 | 1.30 | 1.30 | 1.35 | 100 | 1000.7 |
| 20260507032707 | 19 | 163 | 0.0 | 0.0 | 1.02 | 1.02 | 1.04 | 99 | 1000.5 |
| 20260507032207 | 19 | 176 | 0.0 | 0.0 | 0.61 | 0.61 | 0.61 | 99 | 1000.3 |
| 20260507031705 | 20 | 204 | 0.0 | 0.0 | 0.43 | 0.43 | 0.41 | 97 | 998.7 |
| 20260507031204 | 21 | 219 | 0.0 | 0.0 | 0.03 | 0.03 | 0.00 | 96 | 1000.4 |
| 20260507030704 | 22 | 200 | 0.0 | 0.0 | 0.03 | 0.03 | 0.00 | 97 | 999.2 |
| 20260507030203 | 23 | 111 | 0.0 | 0.0 | 0.03 | 0.03 | 0.00 | 98 | 998.9 |
| 20260507025702 | 25 | 79 | 0.0 | 0.0 | 0.03 | 0.03 | 0.03 | 94 | 998.6 |
| 20260507025159 | 25 | 48 | 0.0 | 0.0 | 0.00 | 0.00 | 0.00 | 86 | 998.4 |
| 20260507024700 | 25 | 56 | 0.0 | 0.0 | 0.00 | 0.00 | 0.00 | 85 | 998.6 |
| 20260507024159 | 25 | 60 | 0.0 | 0.0 | 0.00 | 0.00 | 0.00 | 85 | 998.5 |
| 20260507023155 | 25 | 68 | 0.0 | 0.0 | 0.00 | 0.00 | 0.00 | 85 | 999.0 |
| 20260507022156 | 25 | 67 | 0.0 | 0.0 | 0.00 | 0.00 | 0.00 | 85 | 998.8 |
| 20260507021655 | 25 | 54 | 0.0 | 0.0 | 0.00 | 0.00 | 0.00 | 84 | 998.8 |
| 20260507021155 | 25 | 67 | 0.0 | 0.0 | 0.00 | 0.00 | 0.00 | 85 | 999.2 |
| 20260507020155 | 25 | 39 | 0.0 | 0.0 | 0.00 | 0.00 | 0.00 | 85 | 999.3 |
| 20260507015656 | 25 | 63 | 0.0 | 0.0 | 0.00 | 0.00 | 0.00 | 84 | 999.5 |
| 20260507015155 | 26 | 66 | 0.0 | 0.0 | 0.00 | 0.00 | 0.00 | 84 | 999.8 |
| 20260507014654 | 26 | 53 | 0.0 | 0.0 | 0.00 | 0.00 | 0.00 | 84 | 1000.1 |
| 20260507013655 | 26 | 101 | 0.0 | 0.0 | 0.00 | 0.00 | 0.00 | 85 | 1000.0 |
| 20260507013154 | 26 | 76 | 0.0 | 0.0 | 0.00 | 0.00 | 0.00 | 85 | 1000.0 |
| 20260507012652 | 26 | 129 | 0.0 | 0.0 | 0.00 | 0.00 | 0.00 | 85 | 999.8 |
| 20260507012151 | 26 | 49 | 0.0 | 0.0 | 0.00 | 0.00 | 0.00 | 84 | 999.8 |
| 20260507011651 | 26 | 70 | 0.0 | 0.0 | 0.00 | 0.00 | 0.00 | 85 | 1000.3 |
| 20260507011151 | 26 | 77 | 0.0 | 0.0 | 0.00 | 0.00 | 0.00 | 85 | 1000.4 |
| 20260507010651 | 26 | 68 | 0.0 | 0.0 | 0.00 | 0.00 | 0.00 | 85 | 1000.3 |
| 20260507010151 | 26 | 65 | 0.0 | 0.0 | 0.00 | 0.00 | 0.00 | 85 | 1000.0 |
| 20260507005649 | 26 | 46 | 0.0 | 0.0 | 0.00 | 0.00 | 0.00 | 85 | 1000.0 |
| 20260507004648 | 25 | 65 | 0.0 | 0.0 | 0.00 | 0.00 | 0.00 | 85 | 1000.0 |